[[{"header":{"parameterUnit":"m.s-1","parameterCategory":1,"la1":30.2992,"la2":30.254,"lo1":-89.0895,"lo2":-89.0443,"dy":0.0025,"dx":0.0025,"nx":19,"ny":19,"refTime":"2026-03-31T21:00:00:Z","depth":0,"parameterNumber":2,"parameterNumberName":"U-component_of_WINDS"},"data":[0,0,0,-3.7882,-3.7883,-3.7952,-3.7952,-3.8033,-3.8034,0,0,0,0,0,0,0,0,0,0,0,-3.7859,-3.7859,-3.7882,-3.7883,-3.7952,-3.7952,-3.8033,-3.8034,0,0,0,0,0,0,0,0,0,0,0,-3.7859,-3.7859,-3.786,-3.7884,-3.7952,-3.7952,-3.8033,-3.7983,0,0,0,0,0,0,0,0,0,0,-3.7917,-3.7894,-3.7859,-3.786,-3.7884,-3.7952,-3.7952,-3.7981,-3.7986,-3.8,0,-3.8013,0,-3.8025,-3.8039,-3.8039,0,0,0,-3.7884,-3.789,-3.7911,-3.786,-3.7885,-3.7952,-3.7921,-3.7984,-3.799,-3.8007,-3.8014,-3.8017,-3.8026,-3.804,-3.804,-3.8118,-3.8118,0,0,-3.7881,-3.787,-3.7907,-3.7915,-3.7906,-3.7919,-3.7923,-3.7988,-3.7994,-3.8014,-3.8019,-3.8028,-3.804,-3.8041,-3.8118,-3.8118,0,0,0,-3.7869,-3.7867,-3.7886,-3.7911,-3.7924,-3.7921,-3.7926,-3.7991,-3.7999,-3.802,-3.8029,-3.8041,-3.8042,-3.8117,-3.8118,-3.8122,0,0,0,-3.7867,-3.786,-3.7885,-3.7878,-3.7923,-3.7959,-3.7928,-3.7994,-3.8002,-3.8028,-3.8041,-3.8042,-3.8117,-3.8118,-3.8121,-3.8125,0,0,0,-3.7855,-3.7859,-3.7868,-3.7878,-3.7907,-3.7958,-3.7969,-3.7996,-3.8007,-3.8039,-3.8043,-3.8117,-3.8118,-3.812,-3.8124,-3.8141,0,0,0,-3.7839,-3.787,-3.7868,-3.7906,-3.7907,-3.7961,-3.7969,-3.801,-3.8039,-3.8041,-3.8117,-3.8118,-3.812,-3.8123,-3.814,-3.8152,-3.8157,0,0,-3.7872,-3.7874,-3.7897,-3.7897,-3.795,-3.7952,-3.8004,-3.804,-3.8053,-3.8095,-3.8097,-3.8121,-3.8123,-3.8141,-3.819,-3.8194,0,0,0,-3.7904,-3.792,-3.7936,-3.7964,-3.7994,-3.8018,-3.8048,-3.8062,-3.8098,-3.8073,-3.8134,-3.8135,-3.8146,-3.8152,-3.8155,-3.8164,-3.8121,-3.8121,-3.8121,-3.7932,-3.7949,-3.7987,-3.8012,-3.8038,-3.8069,-3.8091,-3.8114,-3.8122,-3.8136,-3.8147,-3.8176,-3.8183,-3.8185,-3.8194,-3.8157,-3.8157,-3.8157,-3.8157,-3.798,-3.8005,-3.8016,-3.8057,-3.8073,-3.8108,-3.8138,-3.8142,-3.8175,-3.8168,-3.8178,-3.8167,-3.8189,-3.8197,-3.8158,-3.8158,-3.8158,-3.8157,-3.8157,-3.7999,-3.8014,-3.8031,-3.8072,-3.8102,-3.8126,-3.8157,-3.8171,-3.8184,-3.8194,-3.8207,-3.8207,-3.8207,-3.82,-3.82,-3.82,-3.82,-3.82,-3.82,-3.8011,-3.803,-3.8056,-3.8091,-3.811,-3.8137,-3.8169,-3.8188,-3.8212,-3.8219,-3.8219,-3.8224,-3.8189,-3.8179,-3.8202,-3.8202,-3.8201,-3.8201,-3.8201,-3.8049,-3.8043,-3.8083,-3.8102,-3.8144,-3.8172,-3.819,-3.8227,-3.8245,-3.826,-3.8264,-3.8236,-3.8238,-3.8236,-3.8227,-3.8261,-3.8261,-3.8261,-3.8261,-3.8063,-3.8067,-3.811,-3.814,-3.8172,-3.8192,-3.8234,-3.8259,-3.8284,-3.8296,-3.8293,-3.8284,-3.8281,-3.8284,-3.8281,-3.8273,-3.8318,-3.8318,-3.8318,-3.8087,-3.8094,-3.8128,-3.8154,-3.8187,-3.8215,-3.8255,-3.8288,-3.8314,-3.8321,-3.8305,-3.8302,-3.8287,-3.8282,-3.8285,-3.828,-3.8265,0,0]},{"header":{"parameterUnit":"m.s-1","parameterCategory":1,"la1":30.2992,"la2":30.254,"lo1":-89.0895,"lo2":-89.0443,"dy":0.0025,"dx":0.0025,"nx":19,"ny":19,"refTime":"2026-03-31T21:00:00:Z","depth":0,"parameterNumber":3,"parameterNumberName":"V-component_of_WINDS"},"data":[0,0,0,3.8014,3.8015,3.8085,3.8086,3.8187,3.8188,0,0,0,0,0,0,0,0,0,0,0,3.8003,3.8004,3.8014,3.8016,3.8085,3.8086,3.8187,3.8188,0,0,0,0,0,0,0,0,0,0,0,3.8002,3.8004,3.8005,3.8016,3.8085,3.8086,3.8187,3.8129,0,0,0,0,0,0,0,0,0,0,3.8059,3.8059,3.8003,3.8005,3.8016,3.8085,3.8086,3.8126,3.8133,3.8162,0,3.8192,0,3.8192,3.8196,3.8197,0,0,0,3.8008,3.8054,3.8064,3.8005,3.8017,3.8085,3.8052,3.813,3.8137,3.8171,3.8194,3.8197,3.8194,3.8197,3.8198,3.8398,3.8399,0,0,3.8004,3.802,3.8059,3.8069,3.8062,3.805,3.8054,3.8134,3.8159,3.8194,3.8199,3.8196,3.8198,3.8199,3.8396,3.8398,0,0,0,3.7998,3.8018,3.8026,3.8066,3.8077,3.8052,3.8057,3.8155,3.8157,3.82,3.8197,3.8199,3.82,3.8395,3.8397,3.848,0,0,0,3.7995,3.8014,3.8024,3.8035,3.8076,3.8118,3.8077,3.8151,3.816,3.8196,3.8199,3.8201,3.8394,3.8396,3.8474,3.8516,0,0,0,3.7995,3.8014,3.8028,3.8036,3.8067,3.8116,3.8122,3.8153,3.8159,3.8197,3.8201,3.8393,3.8396,3.847,3.8508,3.8575,0,0,0,3.7998,3.8098,3.8029,3.814,3.8066,3.8167,3.8121,3.8195,3.8237,3.8199,3.8394,3.8397,3.8468,3.8503,3.857,3.8636,3.8664,0,0,3.8133,3.8115,3.8179,3.8119,3.8237,3.8155,3.8284,3.8306,3.8293,3.8363,3.8368,3.8476,3.8508,3.8574,3.8816,3.8839,0,0,0,3.8227,3.8273,3.8301,3.8344,3.8365,3.8386,3.8387,3.8395,3.8454,3.8333,3.8517,3.8535,3.8573,3.8604,3.8624,3.8656,3.8411,3.8411,3.8411,3.8442,3.8422,3.8527,3.8516,3.8558,3.8559,3.8591,3.8602,3.8567,3.8611,3.8632,3.8782,3.8818,3.8833,3.8867,3.8664,3.8664,3.8665,3.8665,3.8639,3.8702,3.8657,3.8742,3.872,3.879,3.8795,3.8769,3.883,3.8764,3.8797,3.8728,3.8859,3.8887,3.8671,3.867,3.8669,3.8668,3.8668,3.8779,3.8806,3.8816,3.8877,3.8926,3.891,3.8972,3.8949,3.8927,3.8959,3.898,3.8978,3.8975,3.897,3.8971,3.8971,3.8972,3.8972,3.8973,3.8921,3.893,3.8987,3.9019,3.9044,3.9074,3.9076,3.9099,3.9118,3.9096,3.9096,3.9059,3.8875,3.883,3.8981,3.8979,3.8978,3.8977,3.8977,3.9132,3.9081,3.9169,3.9194,3.923,3.9281,3.925,3.93,3.9315,3.9347,3.9302,3.9169,3.9148,3.9132,3.9095,3.9305,3.9305,3.9305,3.9305,3.9251,3.9239,3.9324,3.9367,3.9405,3.9387,3.9486,3.9488,3.9482,3.949,3.9456,3.9404,3.9389,3.9377,3.9356,3.9321,3.9583,3.9584,3.9584,3.938,3.9371,3.9461,3.9456,3.9483,3.9505,3.9598,3.9647,3.9629,3.9595,3.9496,3.9485,3.9401,3.9374,3.9339,3.9307,3.9243,0,0]}]]